x

St. Joseph, Mi (sjom4) Weather Station

12:00am - Mon 27th Feb 2017 All times are CST. -6 hours from GMT.

  • Wind
    18mph, 24mph gusts
  • Air Temp 39°f
  • Sea Pressure 1018.6mb
  • St. Joseph, Mi
  • St. Joseph, Mi

More Historic Weather Station data

Upgrade to MSW Pro to gain access to the past 30 days of data for over 8000 Wavebouys and Weather Stations around the globe.

Join Pro

Comparision Forecast

View Surf forecast
   
Mon 02/27 12:00am 18 24 mph 1018.6mb 39f
Sun 02/26 11:50pm 20 23 mph 1019.3mb 39f
11:40pm 20 25 mph 1018.6mb 39f
11:30pm 20 23 mph 1017.9mb 39f
11:20pm 21 24 mph 1018.6mb 40f
11:10pm 20 25 mph 1018.3mb 40f
11:00pm 21 28 mph 1017.9mb 40f
10:50pm 22 26 mph 1018.3mb 40f
10:40pm 20 25 mph 1018.3mb 40f
10:30pm 20 25 mph 1017.6mb 40f
10:20pm 18 23 mph 1018.3mb 40f
10:10pm 21 26 mph 1018.3mb 40f
10:00pm 23 29 mph 1017.6mb 40f
9:50pm 23 26 mph 1017.9mb 40f
9:40pm 23 29 mph 1017.9mb 40f
9:30pm 22 26 mph 1017.3mb 40f
9:20pm 22 26 mph 1017.3mb 40f
9:10pm 21 25 mph 1017.9mb 41f
9:00pm 21 23 mph 1017.6mb 41f
8:50pm 18 24 mph 1016.9mb 41f
8:40pm 18 23 mph 1017.3mb 41f
8:30pm 14 21 mph 1017.6mb 40f
8:20pm 16 23 mph 1016.6mb 41f
8:10pm 18 23 mph 1016.3mb 41f
8:00pm 18 21 mph 1016.9mb 41f
7:50pm 16 20 mph 1016.9mb 41f
7:40pm 13 16 mph 1015.9mb 42f
7:30pm 11 16 mph 1016.3mb 41f
7:20pm 13 18 mph 1016.6mb 42f
7:10pm 10 16 mph 1015.9mb 41f
7:00pm 13 16 mph 1015.9mb 42f
6:50pm 11 16 mph 1016.3mb 41f
6:40pm 10 15 mph 1016.3mb 40f
6:30pm 13 17 mph 1015.6mb 40f
6:20pm 11 15 mph 1016.3mb 40f
6:10pm 13 15 mph 1016.3mb 40f
2:00pm 21 26 mph 1014.2mb 40f
1:50pm 22 28 mph 1014.9mb 40f
1:40pm 23 26 mph 1014.9mb 40f
1:30pm 23 29 mph 1014.6mb 40f
1:20pm 23 29 mph 1014.9mb 40f
1:10pm 22 29 mph 1014.9mb 40f
1:00pm 23 29 mph 1014.6mb 40f
12:50pm 24 31 mph 1015.2mb 40f
12:40pm 24 31 mph 1015.6mb 40f
12:30pm 21 32 mph 1015.2mb 40f
12:20pm 14 29 mph 1014.9mb 39f
12:10pm 21 26 mph 1015.6mb 40f
12:00pm 15 24 mph 1015.6mb 39f
11:50am 15 23 mph 1015.2mb 39f
11:40am 13 20 mph 1015.6mb 38f
11:30am 13 18 mph 1016.3mb 38f
11:20am 9 15 mph 1016.6mb 37f
11:10am 9 17 mph 1015.9mb 36f
11:00am 8 16 mph 1016.3mb 35f
10:50am 9 15 mph 1017.3mb 35f
10:40am 6 17 mph 1017.6mb 34f
10:30am 7 17 mph 1017.6mb 33f
10:20am 9 17 mph 1016.9mb 33f
10:10am 11 21 mph 1017.3mb 33f
10:00am 11 17 mph 1017.6mb 33f
9:50am 10 20 mph 1017.9mb 32f
9:40am 8 15 mph 1017.6mb 32f
9:30am 10 18 mph 1017.3mb 31f
9:20am 7 13 mph 1016.9mb 31f
9:10am 7 14 mph 1016.9mb 30f
9:00am 9 14 mph 1017.6mb 30f
8:50am 7 10 mph 1017.9mb 30f
8:40am 5 11 mph 1017.6mb 29f
8:30am 6 13 mph 1017.6mb 28f
8:20am 7 14 mph 1017.9mb 27f
8:10am 9 13 mph 1017.9mb 27f
8:00am 5 14 mph 1018.3mb 26f
7:50am 8 13 mph 1018.3mb 26f
7:40am 6 11 mph 1018.3mb 25f
7:30am 7 14 mph 1017.9mb 25f
7:20am 5 15 mph 1017.6mb 24f
7:10am 6 13 mph 1017.9mb 24f
7:00am 7 11 mph 1017.6mb 24f
6:50am 6 10 mph 1017.6mb 24f
6:40am 6 10 mph 1017.6mb 24f
6:30am 6 9 mph 1017.6mb 24f
6:20am 5 8 mph 1017.6mb 24f
6:10am 5 8 mph 1017.6mb 24f
6:00am 6 11 mph 1017.9mb 24f
5:50am 5 9 mph 1017.9mb 24f
5:40am 6 9 mph 1018.3mb 25f
5:30am 6 11 mph 1018.3mb 25f
5:20am 6 9 mph 1018.3mb 25f
5:10am 6 8 mph 1017.9mb 25f
5:00am 5 9 mph 1017.6mb 27f
4:50am 7 20 mph 1017.6mb 29f
4:40am 15 17 mph 1017.3mb 30f
4:30am 13 16 mph 1017.6mb 30f
4:20am 13 16 mph 1017.9mb 30f
4:10am 14 17 mph 1018.6mb 30f
4:00am 15 16 mph 1018.6mb 30f
3:50am 13 16 mph 1018.3mb 30f
3:40am 14 17 mph 1017.9mb 30f
3:30am 10 15 mph 1017.6mb 30f
3:20am 10 11 mph 1017.6mb 29f
3:10am 9 11 mph 1017.6mb 29f
3:00am 8 9 mph 1017.9mb 29f
2:50am 8 10 mph 1018.3mb 29f
2:40am 9 14 mph 1017.9mb 29f
2:30am 9 11 mph 1017.9mb 29f
2:20am 8 13 mph 1017.9mb 29f
2:10am 10 14 mph 1017.6mb 29f
2:00am 11 15 mph 1017.9mb 30f
1:50am 10 15 mph 1017.9mb 29f
1:40am 10 14 mph 1018.3mb 29f
1:30am 11 14 mph 1018.3mb 29f
1:20am 9 13 mph 1017.9mb 29f
1:10am 10 14 mph 1017.6mb 29f
1:00am 10 15 mph 1017.3mb 29f
12:50am 11 15 mph 1017.6mb 29f
12:40am 13 16 mph 1017.9mb 29f
12:30am 10 15 mph 1017.9mb 29f
12:20am 14 16 mph 1017.9mb 29f
12:10am 14 18 mph 1017.3mb 29f
12:00am 16 17 mph 1016.9mb 29f
Sat 02/25 11:50pm 14 18 mph 1016.9mb 29f
11:40pm 15 20 mph 1017.3mb 29f
11:30pm 14 18 mph 1017.6mb 29f
11:20pm 16 21 mph 1017.6mb 29f
11:10pm 14 20 mph 1017.3mb 29f
11:00pm 15 20 mph 1016.6mb 29f
10:50pm 14 17 mph 1016.9mb 29f
10:40pm 15 20 mph 1016.9mb 29f
10:30pm 14 18 mph 1016.9mb 28f
10:20pm 13 18 mph 1016.9mb 28f
10:10pm 11 17 mph 1017.3mb 28f
10:00pm 16 21 mph 1017.3mb 28f
9:50pm 15 20 mph 1017.3mb 28f
9:40pm 15 20 mph 1017.3mb 28f
9:30pm 14 20 mph 1016.9mb 28f
9:20pm 15 20 mph 1016.6mb 28f
9:10pm 15 18 mph 1016.6mb 28f
9:00pm 15 21 mph 1016.3mb 28f
8:50pm 14 20 mph 1015.9mb 28f
8:40pm 15 22 mph 1015.9mb 28f
8:30pm 16 21 mph 1015.9mb 28f
8:20pm 13 21 mph 1016.3mb 28f
8:10pm 17 22 mph 1016.6mb 28f
8:00pm 17 20 mph 1016.3mb 28f
7:50pm 16 21 mph 1016.3mb 28f
7:40pm 16 21 mph 1015.9mb 28f
7:30pm 16 24 mph 1015.2mb 28f
7:20pm 15 21 mph 1015.2mb 28f
7:10pm 16 22 mph 1015.2mb 28f
7:00pm 17 23 mph 1015.6mb 28f
6:50pm 16 21 mph 1015.9mb 27f
6:40pm 17 23 mph 1015.9mb 27f
6:30pm 18 24 mph 1015.6mb 27f
6:20pm 18 22 mph 1015.6mb 27f
6:10pm 16 25 mph 1015.6mb 27f
6:00pm 18 24 mph 1015.2mb 27f
5:50pm 18 23 mph 1015.2mb 27f
5:40pm 18 26 mph 1014.9mb 27f
5:30pm 17 24 mph 1014.9mb 27f
5:20pm 22 26 mph 1014.9mb 28f
5:10pm 17 25 mph 1014.9mb 27f
5:00pm 21 25 mph 1014.6mb 27f
4:50pm 17 25 mph 1014.6mb 27f
4:40pm 16 24 mph 1014.6mb 26f
4:30pm 18 26 mph 1014.2mb 27f
4:20pm 20 28 mph 1014.2mb 27f
4:10pm 17 24 mph 1013.9mb 26f
3:00pm 22 28 mph 1013.2mb 26f
2:50pm 22 26 mph 1012.9mb 26f
2:40pm 22 28 mph 1012.5mb 27f
2:30pm 21 24 mph 1012.2mb 28f
2:20pm 22 28 mph 1011.5mb 27f
2:10pm 18 26 mph 1011.2mb 28f
2:00pm 21 28 mph 1011.2mb 28f
1:50pm 23 33 mph 1011.2mb 27f
1:40pm 21 28 mph 1011.5mb 27f
1:30pm 20 28 mph 1011.5mb 27f
1:20pm 23 30 mph 1011.2mb 27f
1:10pm 22 29 mph 1011.2mb 27f
1:00pm 21 26 mph 1011.2mb 27f
12:50pm 22 25 mph 1011.2mb 27f
12:40pm 21 28 mph 1010.8mb 27f
12:30pm 21 25 mph 1010.5mb 26f
12:20pm 18 24 mph 1010.2mb 27f
12:10pm 18 25 mph 1010.2mb 27f
12:00pm 18 28 mph 1010.2mb 27f
11:50am 21 29 mph 1009.8mb 27f
11:40am 22 25 mph 1010.5mb 27f
11:30am 23 28 mph 1010.5mb 26f
11:20am 22 26 mph 1010.5mb 26f
11:10am 23 26 mph 1010.2mb 27f
11:00am 21 28 mph 1009.8mb 27f
10:50am 21 31 mph 1009.5mb 27f
10:40am 21 28 mph 1009.5mb 27f
10:30am 22 28 mph 1009.1mb 27f
10:20am 23 26 mph 1008.5mb 27f
10:10am 23 30 mph 1008.5mb 27f
10:00am 21 26 mph 1008.5mb 27f
9:50am 18 26 mph 1008.5mb 27f
9:40am 24 28 mph 1008.8mb 27f
9:30am 24 28 mph 1008.5mb 27f
9:20am 21 28 mph 1007.8mb 27f
9:10am 21 28 mph 1007.8mb 28f
9:00am 25 29 mph 1007.1mb 28f
8:50am 23 28 mph 1007.1mb 27f
8:40am 22 28 mph 1007.1mb 28f
8:30am 23 26 mph 1007.5mb 28f
8:20am 20 26 mph 1007.5mb 28f
8:10am 22 29 mph 1006.8mb 28f
8:00am 24 29 mph 1006.4mb 27f
7:50am 22 26 mph 1006.4mb 27f
7:40am 21 30 mph 1006.8mb 28f
7:30am 24 29 mph 1006.8mb 28f
7:20am 25 32 mph 1006.8mb 29f
7:10am 24 31 mph 1006.1mb 29f
7:00am 25 31 mph 1005.4mb 29f
6:50am 23 29 mph 1005.4mb 30f
6:40am 21 29 mph 1005.4mb 30f
6:30am 22 28 mph 1005.4mb 30f
6:20am 21 26 mph 1005.4mb 31f
6:10am 22 25 mph 1004.7mb 31f
6:00am 22 25 mph 1004.1mb 31f
5:50am 22 28 mph 1004.1mb 31f
5:40am 24 26 mph 1004.7mb 31f
5:30am 18 23 mph 1004.4mb 31f
5:20am 18 22 mph 1003.7mb 31f
5:10am 17 22 mph 1003.4mb 32f
5:00am 16 22 mph 1003.7mb 32f
4:50am 17 23 mph 1003.7mb 32f
4:40am 17 22 mph 1003.7mb 32f
4:30am 16 23 mph 1003.7mb 32f
4:20am 20 24 mph 1002.7mb 32f
4:10am 18 23 mph 1002.7mb 33f
4:00am 18 25 mph 1003mb 32f
3:50am 22 26 mph 1003mb 33f
3:40am 20 24 mph 1002mb 33f
3:30am 20 24 mph 1002mb 33f
3:20am 17 22 mph 1002.7mb 33f
3:10am 18 21 mph 1002.7mb 33f
3:00am 17 22 mph 1002.4mb 33f
2:50am 15 22 mph 1002mb 33f
2:40am 18 22 mph 1002.7mb 34f
2:30am 15 17 mph 1002.7mb 34f
2:20am 11 17 mph 1002mb 34f
2:10am 11 14 mph 1001.7mb 35f
2:00am 14 16 mph 1001.7mb 35f
1:50am 11 14 mph 1002mb 35f
1:40am 13 15 mph 1002.4mb 35f
1:30am 13 16 mph 1001.4mb 35f
1:20am 13 17 mph 1001.7mb 35f
1:10am 14 17 mph 1002.4mb 35f
1:00am 13 15 mph 1001.7mb 35f
12:50am 13 14 mph 1001.7mb 35f
12:40am 10 11 mph 1002.4mb 35f
12:30am 9 14 mph 1002.7mb 35f
12:20am 10 11 mph 1002mb 35f
12:10am 9 11 mph 1002mb 35f
Fri 02/24 11:00pm 8 11 mph 1002mb 36f
10:50pm 8 11 mph 1001.7mb 36f
10:40pm 9 11 mph 1002.4mb 36f
10:30pm 11 14 mph 1002.7mb 36f
10:20pm 9 13 mph 1002.7mb 36f
10:10pm 9 11 mph 1001.7mb 36f
10:00pm 9 13 mph 1002.4mb 36f
9:50pm 10 16 mph 1002.7mb 36f
9:40pm 11 16 mph 1002mb 36f
9:30pm 14 17 mph 1002.4mb 37f
9:20pm 11 15 mph 1002.7mb 37f
9:10pm 13 15 mph 1002.7mb 37f
9:00pm 13 15 mph 1002mb 37f
8:50pm 10 15 mph 1001.7mb 37f
8:40pm 13 17 mph 1002.4mb 37f
8:30pm 14 16 mph 1002.4mb 37f
8:20pm 13 15 mph 1001.4mb 37f
8:10pm 13 15 mph 1000.7mb 37f
8:00pm 10 16 mph 1001mb 37f
7:50pm 11 14 mph 1001.4mb 37f
7:40pm 10 11 mph 1000mb 37f
7:30pm 9 13 mph 1000.3mb 37f
7:20pm 9 13 mph 1000.7mb 38f
7:10pm 10 14 mph 1000.3mb 38f
7:00pm 10 14 mph 1000mb 38f
6:50pm 10 14 mph 1000mb 38f
6:40pm 11 15 mph 1000.3mb 38f
6:30pm 13 14 mph 1000.3mb 38f
6:20pm 11 14 mph 999.7mb 38f
6:10pm 10 13 mph 1000mb 38f
6:00pm 11 14 mph 1000.3mb 38f
5:50pm 10 14 mph 999mb 38f
5:40pm 11 17 mph 999.3mb 38f
5:30pm 14 16 mph 999.3mb 38f
5:20pm 15 18 mph 998.6mb 39f
5:10pm 15 17 mph 998.3mb 39f
5:00pm 14 15 mph 998.6mb 39f
4:50pm 11 16 mph 998.3mb 40f
4:40pm 11 15 mph 997.6mb 39f
4:30pm 8 14 mph 998mb 39f
4:20pm 11 14 mph 998.3mb 39f
4:10pm 11 14 mph 997.6mb 39f
4:00pm 10 14 mph 997.6mb 39f
3:50pm 13 18 mph 998mb 38f
3:40pm 10 13 mph 997.6mb 39f
3:30pm 11 13 mph 997mb 39f
3:20pm 9 14 mph 997mb 40f
3:10pm 5 9 mph 997mb 42f
3:00pm 6 14 mph 996.6mb 42f
2:50pm 11 14 mph 997mb 41f
2:40pm 7 10 mph 997.3mb 40f
2:00am 2 8 mph 1002.4mb 48f
1:50am 5 11 mph 1003mb 48f
1:40am 3 13 mph 1002.7mb 48f
1:30am 5 13 mph 1002.7mb 48f
1:20am 3 10 mph 1003.4mb 48f
1:10am 5 14 mph 1003mb 48f
1:00am 1 9 mph 1003.4mb 48f
12:50am 2 10 mph 1004.4mb 48f
12:40am 1 9 mph 1003.7mb 48f
12:30am 2 10 mph 1004.1mb 48f
12:20am 2 11 mph 1005.1mb 48f
12:10am 5 13 mph 1004.4mb 48f
12:00am 6 14 mph 1004.4mb 48f
Thu 02/23 11:50pm 2 10 mph 1005.4mb 48f
11:40pm 3 8 mph 1005.1mb 47f
11:30pm 5 9 mph 1004.7mb 47f
11:20pm 5 10 mph 1005.8mb 47f
11:10pm 5 8 mph 1005.4mb 47f
11:00pm 2 8 mph 1005.8mb 46f
10:50pm 3 7 mph 1005.8mb 46f
10:40pm 3 7 mph 1006.8mb 45f
10:30pm 2 6 mph 1006.1mb 44f
10:20pm 2 7 mph 1006.1mb 43f
10:10pm 3 5 mph 1006.8mb 42f
10:00pm 3 5 mph 1007.5mb 41f
9:50pm 2 5 mph 1006.8mb 41f
9:40pm 2 5 mph 1007.5mb 42f
9:30pm  -  3 mph 1008.1mb 42f
9:20pm 1 5 mph 1007.1mb 42f
9:10pm  -  6 mph 1007.5mb 41f
9:00pm 3 11 mph 1007.8mb 39f
8:50pm 8 11 mph 1008.1mb 40f
8:40pm 6 8 mph 1006.8mb 41f
8:30pm 6 7 mph 1007.5mb 41f
8:20pm 2 6 mph 1008.1mb 40f
8:10pm 3 8 mph 1007.5mb 40f
8:00pm 3 7 mph 1007.1mb 39f
7:50pm 2 7 mph 1007.8mb 39f
7:40pm 3 5 mph 1008.5mb 38f
7:30pm 1 5 mph 1008.8mb 38f
7:20pm 2 5 mph 1008.5mb 38f
7:10pm 2 6 mph 1009.1mb 38f
7:00pm 3 5 mph 1009.5mb 37f
6:50pm 5 10 mph 1009.5mb 37f
6:40pm 7 15 mph 1008.8mb 37f
6:30pm 10 15 mph 1009.1mb 37f
6:20pm 9 16 mph 1010.2mb 37f
6:10pm 9 11 mph 1010.5mb 37f
6:00pm 5 8 mph 1010.2mb 37f
5:50pm 6 10 mph 1010.5mb 37f
5:40pm 5 10 mph 1010.2mb 37f
5:30pm 9 13 mph 1009.8mb 37f
5:20pm 10 14 mph 1009.8mb 37f
5:10pm 10 14 mph 1009.8mb 38f
5:00pm 7 11 mph 1009.8mb 37f
4:50pm 5 9 mph 1009.5mb 37f
4:40pm 7 13 mph 1010.5mb 37f
4:30pm 10 13 mph 1009.8mb 37f
4:20pm 8 11 mph 1009.5mb 38f
4:10pm 6 9 mph 1009.8mb 38f
4:00pm 7 11 mph 1010.5mb 38f
3:50pm 10 13 mph 1009.5mb 38f
3:40pm 11 15 mph 1009.1mb 38f
3:30pm 8 15 mph 1009.8mb 38f
3:20pm 8 14 mph 1010.5mb 39f
3:10pm 9 15 mph 1009.8mb 39f
3:00pm 9 16 mph 1009.8mb 38f
2:50pm 11 15 mph 1010.2mb 38f
2:40pm 10 14 mph 1009.1mb 38f
2:30pm 7 14 mph 1009.8mb 39f
2:20pm 11 14 mph 1010.5mb 38f
2:10pm 8 14 mph 1010.2mb 38f
2:00pm 11 15 mph 1010.2mb 38f
1:50pm 9 13 mph 1010.8mb 38f
1:40pm 8 15 mph 1010.8mb 38f
1:30pm 11 17 mph 1010.2mb 38f
1:20pm 13 17 mph 1010.8mb 39f
1:10pm 11 16 mph 1010.8mb 39f
1:00pm 13 16 mph 1010.2mb 38f
12:50pm 14 16 mph 1010.8mb 39f
12:40pm 7 8 mph 1011.2mb 39f
12:30pm 5 6 mph 1010.5mb 39f
12:20pm 3 5 mph 1011.2mb 39f
12:10pm 3 5 mph 1011.2mb 39f
12:00pm 5 6 mph 1010.5mb 39f
11:50am 5 6 mph 1011.2mb 39f
11:40am 5 8 mph 1011.2mb 40f
11:30am 7 8 mph 1010.5mb 40f
11:20am 6 9 mph 1010.8mb 40f
11:10am 9 13 mph 1010.8mb 40f
11:00am 10 15 mph 1009.8mb 40f
10:50am 10 17 mph 1009.8mb 40f
10:40am 13 17 mph 1010.5mb 42f
10:30am 10 16 mph 1009.5mb 44f
10:20am 10 14 mph 1009.8mb 44f
10:10am 8 14 mph 1010.5mb 44f
10:00am 6 13 mph 1010.5mb 44f
9:50am 8 14 mph 1009.8mb 44f
9:40am 8 16 mph 1010.2mb 43f
9:30am 9 13 mph 1009.8mb 43f
9:20am 8 11 mph 1009.1mb 42f
9:10am 7 13 mph 1009.8mb 41f
9:00am 8 10 mph 1009.5mb 41f
8:50am 7 9 mph 1008.8mb 41f
8:40am 8 10 mph 1009.5mb 42f
8:30am 6 8 mph 1009.1mb 42f
8:20am 5 6 mph 1008.8mb 42f
8:10am 2 5 mph 1009.1mb 42f
8:00am 2 5 mph 1008.8mb 42f
7:50am 2 5 mph 1008.1mb 42f
7:40am 3 6 mph 1008.5mb 43f
7:30am 2 5 mph 1008.5mb 43f